Key West NAF, FL

1:54 AM EDT on April 24, 2017 (GMT -0400)
Key West Naval Air Station

Weather History for KNQX - October, 2011

Change the Weather History Date:

Tuesday, October 4, 2011

  Actual Average Record
Temperature  
Mean Temperature 82 °F -  
Max Temperature 84 °F 86 °F 91 °F (1962)
Min Temperature 80 °F 77 °F 71 °F (1950)
Cooling Degree Days 17    
Growing Degree Days 32 (Base 50)    
Moisture  
Dew Point 71 °F    
Average Humidity 72    
Maximum Humidity 84    
Minimum Humidity 63    
Precipitation  
Precipitation 0.00 in - - ()
Sea Level Pressure  
Sea Level Pressure 30.03 in    
Wind  
Wind Speed 8 mph (ENE)    
Max Wind Speed 16 mph    
Max Gust Speed 25 mph    
Visibility 10 miles    
Events Rain , Thunderstorm    
Averages and records for this station are not official NWS values.
T = Trace of Precipitation, MM = Missing Value Source: NWS Daily Summary

Daily Weather History Graph

Daily Weather History Graph

Search for Another Location

Airport or City:

Trip Planner

Search our weather history database for the weather conditions in past years. The results will help you decide how hot, cold, wet, or windy it might be!

Date:

Astronomy

Oct. 04, 2011 Rise Set
Actual Time 7:19 AM EDT 7:10 PM EDT
Civil Twilight 6:57 AM EDT 7:33 PM EDT
Nautical Twilight 6:30 AM EDT 8:00 PM EDT
Astronomical Twilight 6:04 AM EDT 8:26 PM EDT
Moon 2:32 PM EDT (10/4) 12:44 AM EDT (10/4)
Length of Visible Light 12h 36m
Length of Day
11h 51m
First Quarter, 56% of the Moon is Illuminated
Oct 4
First Quarter
Oct 11
Full
Oct 19
Last Quarter
Oct 26
New
Nov 2
First Quarter

Hourly Weather History & Observations

Time (EDT) Temp. Heat Index Dew Point Humidity Pressure Visibility Wind Dir Wind Speed Gust Speed Precip Events Conditions
12:53 AM 80.1 °F 84.2 °F 73.0 °F 79% 30.03 in 10.0 mi Calm Calm - N/A   Mostly Cloudy
1:53 AM 81.0 °F 86.7 °F 75.0 °F 82% 30.02 in 10.0 mi ENE 5.8 mph - N/A   Scattered Clouds
2:11 AM 80.6 °F 86.2 °F 75.2 °F 84% 30.01 in 10.0 mi East 10.4 mph - N/A   Mostly Cloudy
2:53 AM 81.0 °F 85.8 °F 73.0 °F 77% 30.00 in 10.0 mi ENE 8.1 mph - N/A   Mostly Cloudy
3:53 AM 81.0 °F 85.8 °F 73.0 °F 77% 29.99 in 10.0 mi ENE 9.2 mph - N/A   Partly Cloudy
4:53 AM 81.0 °F 85.8 °F 73.0 °F 77% 29.99 in 10.0 mi ENE 8.1 mph - N/A   Clear
5:38 AM 82.4 °F 87.2 °F 71.6 °F 70% 30.00 in 10.0 mi NE 10.4 mph 19.6 mph N/A Thunderstorm Thunderstorm
5:53 AM 82.0 °F 86.3 °F 71.1 °F 69% 30.00 in 10.0 mi ENE 10.4 mph - N/A Thunderstorm Thunderstorm
6:04 AM 82.4 °F 87.2 °F 71.6 °F 70% 30.01 in 10.0 mi ENE 9.2 mph - 0.00 in Rain , Thunderstorm Light Thunderstorms and Rain
6:23 AM 80.6 °F 84.6 °F 71.6 °F 74% 30.01 in 10.0 mi NE 10.4 mph 17.3 mph 0.00 in   Overcast
6:25 AM 80.6 °F 84.6 °F 71.6 °F 74% 30.01 in 10.0 mi ENE 10.4 mph 17.3 mph 0.00 in   Overcast
6:53 AM 81.0 °F 85.8 °F 73.0 °F 77% 30.03 in 10.0 mi NE 9.2 mph - 0.00 in   Mostly Cloudy
7:53 AM 81.0 °F 85.2 °F 72.0 °F 74% 30.04 in 10.0 mi ENE 10.4 mph - N/A   Mostly Cloudy
8:53 AM 81.0 °F 85.2 °F 72.0 °F 74% 30.05 in 10.0 mi ENE 10.4 mph - N/A   Mostly Cloudy
9:53 AM 82.9 °F 88.0 °F 72.0 °F 69% 30.06 in 10.0 mi ENE 16.1 mph 21.9 mph N/A   Mostly Cloudy
10:53 AM 84.0 °F 89.6 °F 72.0 °F 67% 30.07 in 10.0 mi ENE 16.1 mph 24.2 mph N/A   Mostly Cloudy
11:53 AM 82.9 °F 87.0 °F 70.0 °F 65% 30.06 in 10.0 mi NE 10.4 mph 25.3 mph N/A   Mostly Cloudy
12:53 PM 82.0 °F 85.9 °F 70.0 °F 67% 30.06 in 10.0 mi NE 15.0 mph 21.9 mph N/A   Mostly Cloudy
1:53 PM 82.0 °F 85.5 °F 69.1 °F 65% 30.04 in 10.0 mi ENE 13.8 mph 23.0 mph N/A   Mostly Cloudy
2:53 PM 84.0 °F 88.4 °F 70.0 °F 63% 30.03 in 10.0 mi ENE 16.1 mph 23.0 mph N/A   Mostly Cloudy
3:53 PM 82.0 °F 85.9 °F 70.0 °F 67% 30.02 in 10.0 mi NE 8.1 mph - N/A   Mostly Cloudy
4:53 PM 82.0 °F 85.9 °F 70.0 °F 67% 30.01 in 10.0 mi ENE 9.2 mph - N/A   Mostly Cloudy
5:53 PM 82.0 °F 86.3 °F 71.1 °F 69% 30.01 in 10.0 mi ENE 11.5 mph - N/A   Mostly Cloudy
6:53 PM 82.0 °F 86.3 °F 71.1 °F 69% 30.01 in 10.0 mi ENE 10.4 mph - N/A   Mostly Cloudy
7:53 PM 81.0 °F 84.9 °F 71.1 °F 72% 30.02 in 10.0 mi East 6.9 mph - N/A   Mostly Cloudy
8:53 PM 81.0 °F 84.9 °F 71.1 °F 72% 30.04 in 10.0 mi NE 3.5 mph - N/A   Mostly Cloudy
9:53 PM 80.1 °F 82.9 °F 69.1 °F 69% 30.05 in 10.0 mi ENE 6.9 mph - N/A   Mostly Cloudy
10:53 PM 80.1 °F 82.9 °F 69.1 °F 69% 30.04 in 10.0 mi NE 9.2 mph - N/A   Clear
11:53 PM 80.1 °F 82.7 °F 68.0 °F 67% 30.05 in 10.0 mi NE 9.2 mph - N/A   Clear